Location: Arbon
(43.0005°N, 0.7472°E)
Time: 11:12:52
(UTC+00:00)

Cosmos 371 Rocket - Pass Details

Date: 22 April 2026
Orbit: 674 x 689 km, 74.0° (Epoch: 15 May)

Event Time Altitude Azimuth Distance (km) Brightness Sun altitude
Rises 21:26:49 0° 346° (NNW) 3,067 7.6 -25.0°
Reaches altitude 10° 21:29:17 10° 355° (N) 2,148 6.5 -25.3°
Enters shadow 21:33:18 36° 49° (NE) 1,088 4.2 -25.7°
